📊 Raw Sensor Data

Showing records 45676 to 45700 of 85,057 total

ID Distance (ft) Battery V Battery A Int Temp (°F) Int Humid (%) Ext Temp (°F) Solar V RSSI SNR Time Stamp
39394 -- 4.01 0 93 42 86 5.10 -72 8 05/01/2025 03:30 PM
39393 -- 4.01 0 94 41 83 5.10 -73 7 05/01/2025 03:15 PM
39392 -- 4.01 0 94 40 83 5.10 -71 8 05/01/2025 03:01 PM
39391 -- 4.01 0 93 40 83 5.10 -75 8 05/01/2025 02:45 PM
39390 -- 4.01 0 93 39 85 5.10 -74 8 05/01/2025 02:30 PM
39389 -- 4.01 0 91 39 83 5.10 -73 8 05/01/2025 02:15 PM
39388 -- 4.13 0 90 39 84 5.10 -76 9 05/01/2025 02:00 PM
39387 -- 4.11 0 88 39 81 5.10 -73 8 05/01/2025 01:45 PM
39386 -- 4.01 0 87 39 82 5.10 -74 8 05/01/2025 01:30 PM
39385 -- 4.01 0 85 40 80 5.10 -73 9 05/01/2025 01:15 PM
39384 -- 4.01 0 84 40 77 5.10 -73 9 05/01/2025 01:01 PM
39383 -- 4.01 0 83 40 77 5.10 -72 9 05/01/2025 12:45 PM
39382 -- 4.12 0 82 40 78 5.10 -76 8 05/01/2025 12:30 PM
39381 -- 4.01 0 81 40 78 5.10 -74 9 05/01/2025 12:15 PM
39380 -- 4.01 0 79 40 74 5.10 -74 8 05/01/2025 12:00 PM
39379 -- 4.01 0 78 40 74 5.10 -72 7 05/01/2025 11:45 AM
39378 -- 4.01 0 77 40 77 5.10 -73 8 05/01/2025 11:30 AM
39377 -- 4.01 0 76 40 75 5.10 -74 8 05/01/2025 11:15 AM
39376 -- 4.01 0 74 40 70 5.10 -71 8 05/01/2025 11:00 AM
39375 -- 4.01 0 73 40 72 5.10 -73 9 05/01/2025 10:45 AM
39374 -- 4.01 0 71 40 70 5.10 -72 9 05/01/2025 10:30 AM
39373 -- 4.01 0 69 40 69 5.10 -72 7 05/01/2025 10:15 AM
39372 -- 4.01 0 68 41 67 5.10 -74 8 05/01/2025 10:01 AM
39371 -- 4.01 0 67 41 69 5.10 -73 9 05/01/2025 09:45 AM
39370 -- 4.01 0 66 40 66 5.10 -72 9 05/01/2025 09:30 AM